[[{"header":{"parameterUnit":"m.s-1","parameterCategory":1,"la1":30.2991,"la2":30.254,"lo1":-89.0895,"lo2":-89.0444,"dy":0.0017,"dx":0.0017,"nx":28,"ny":28,"refTime":"2025-07-20T21:00:00:Z","depth":0,"parameterNumber":2,"parameterNumberName":"U-component_of_WINDS"},"data":[0,0,0,0,0,0,0,0,0,0,0,0,0,0,0,0,0,0,0,0,0,0,0,0,0,0,0,0,0,0,0,0,0,0,0,0,0,0,0,0,0,0,0,0,0,0,0,0,0,0,0,0,0,0,0,0,0,0,0.5464,0.5465,0,0.5583,0.5585,0.5586,0.5639,0.5639,0.5639,0.5639,0.5763,0.5766,0.5769,0,0,0,0,0,0,0,0,0,0,0,0,0,0.5281,0.5284,0.5464,0.5465,0.5467,0.5583,0.5585,0.5586,0.5639,0.5639,0.5639,0.5639,0.5761,0.5765,0.577,0,0,0,0,0,0,0,0,0,0,0,0,0,0.5376,0.5285,0.5463,0.5507,0.5512,0.5583,0.5585,0.5587,0.564,0.5639,0.5639,0.5639,0.576,0.5765,0.577,0.5806,0,0,0.5786,0.5788,0,0,0,0,0,0,0,0,0.5371,0.5383,0.5499,0.5504,0.551,0.5596,0.5566,0.566,0.564,0.5591,0.5639,0.5639,0.5707,0.5717,0.574,0.5812,0.5818,0.5786,0.5789,0.5792,0.5793,0,0,0,0,0,0,0,0.5364,0.5378,0.5511,0.5501,0.5507,0.5521,0.5534,0.5584,0.5649,0.5595,0.56,0.5613,0.571,0.5735,0.5743,0.5819,0.5786,0.5791,0.5794,0.5796,0.5926,0.5927,0,0,0,0,0,0,0.535,0.5372,0.5507,0.5515,0.5438,0.5524,0.5539,0.5569,0.5649,0.5661,0.5613,0.5615,0.5726,0.5737,0.5748,0.5795,0.5792,0.5796,0.5799,0.5926,0.5927,0.5927,0,0,0,0,0,0,0.5346,0.5362,0.5502,0.5445,0.5463,0.5527,0.5561,0.5571,0.5596,0.5662,0.5674,0.5626,0.5726,0.574,0.5791,0.58,0.5799,0.5803,0.5926,0.5926,0.5927,0.589,0,0,0,0,0,0,0.5341,0.536,0.5375,0.5444,0.5466,0.5544,0.5561,0.5574,0.5604,0.5608,0.5677,0.5689,0.5727,0.5783,0.5796,0.5807,0.5807,0.5925,0.5926,0.5927,0.5891,0.5889,0.5888,0,0,0,0,0,0.5334,0.536,0.5375,0.5391,0.5486,0.5544,0.5557,0.56,0.5605,0.562,0.5662,0.5686,0.5797,0.5788,0.5803,0.5816,0.5925,0.5926,0.5926,0.5892,0.589,0.5888,0,0,0,0,0,0,0.529,0.537,0.5388,0.5437,0.5483,0.5553,0.5574,0.5597,0.5644,0.5645,0.5697,0.5713,0.5759,0.5792,0.5781,0.5855,0.5863,0.5867,0.5831,0.583,0.5829,0.582,0.5812,0,0,0,0,0,0.5286,0.5327,0.5394,0.5431,0.5453,0.5509,0.5536,0.5566,0.5616,0.5636,0.5682,0.573,0.5776,0.5805,0.585,0.5896,0.5911,0.5912,0.591,0.5909,0.5912,0.5938,0.5939,0.593,0.593,0.593,0,0,0.5278,0.5327,0.535,0.5424,0.5463,0.5504,0.5526,0.5568,0.5599,0.5643,0.5693,0.5728,0.5785,0.5833,0.5857,0.5863,0.5918,0.591,0.5908,0.5912,0.5939,0.594,0.594,0.593,0.593,0.593,0,0,0.5285,0.5326,0.5361,0.54,0.5459,0.5496,0.5504,0.557,0.5595,0.5646,0.568,0.5717,0.5794,0.5833,0.5863,0.5882,0.5906,0.5896,0.5889,0.5914,0.5914,0.5915,0.5922,0.5924,0.5898,0.5898,0.5898,0,0.5268,0.5331,0.5376,0.5417,0.5448,0.5489,0.5524,0.556,0.5631,0.5651,0.5657,0.5754,0.5795,0.5852,0.5857,0.588,0.5891,0.5889,0.5911,0.5912,0.5914,0.5921,0.5923,0.5897,0.5897,0.5897,0.5897,0,0.5307,0.535,0.5371,0.5438,0.5472,0.551,0.556,0.5589,0.5615,0.5651,0.5702,0.5752,0.5808,0.5824,0.585,0.5885,0.5887,0.59,0.591,0.5912,0.592,0.5923,0.5894,0.5895,0.5895,0.5896,0,0,0.5291,0.5382,0.5389,0.5419,0.5486,0.5521,0.5559,0.5614,0.5637,0.5684,0.5718,0.5782,0.5795,0.5829,0.5859,0.5881,0.5892,0.5892,0.5894,0.589,0.5933,0.5923,0.5925,0.5908,0.5909,0.5909,0.5929,0,0.5308,0.538,0.5421,0.5476,0.5516,0.5554,0.5588,0.5633,0.5667,0.5706,0.5744,0.5788,0.5802,0.5822,0.5845,0.5886,0.5902,0.5885,0.594,0.5942,0.5926,0.5929,0.5919,0.5934,0.5932,0.5932,0.5933,0,0.5337,0.5382,0.5441,0.5503,0.5521,0.5551,0.5604,0.564,0.5691,0.5715,0.5751,0.5782,0.5824,0.5829,0.5888,0.5876,0.5901,0.5924,0.5926,0.5933,0.5938,0.5937,0.594,0.5943,0.5938,0.5938,0.5937,0,0.5319,0.5395,0.544,0.5465,0.5538,0.5558,0.559,0.5641,0.567,0.5716,0.5736,0.5786,0.5813,0.5851,0.5894,0.5894,0.5948,0.5957,0.5969,0.5968,0.598,0.5978,0.5987,0.5994,0.5994,0.5994,0.5994,0,0.5333,0.5368,0.5433,0.5461,0.55,0.5547,0.5584,0.5619,0.5664,0.5698,0.5734,0.5766,0.582,0.5859,0.5892,0.5936,0.5948,0.5968,0.5976,0.5965,0.5962,0.5983,0.5983,0.5995,0.5995,0.5995,0.5995,0,0.532,0.5366,0.5417,0.5482,0.5499,0.5525,0.5581,0.5609,0.5644,0.5688,0.57,0.5756,0.5803,0.5849,0.5912,0.5935,0.5978,0.5989,0.596,0.5965,0.5974,0.5973,0.5997,0.6002,0.6005,0.6005,0.6005,0,0.5327,0.5354,0.5422,0.5447,0.5478,0.5519,0.5549,0.5596,0.5625,0.5685,0.5706,0.5755,0.5797,0.587,0.5916,0.5964,0.5977,0.5982,0.5985,0.5972,0.5978,0.5976,0.5978,0.5981,0.5981,0.5981,0.5981,0,0.5333,0.5354,0.5396,0.5446,0.5481,0.5522,0.5565,0.5584,0.5638,0.567,0.5718,0.575,0.5814,0.5863,0.5916,0.5948,0.5973,0.5979,0.5984,0.5973,0.5956,0.5965,0.5957,0.5979,0.5979,0.5979,0.5979,0.5979,0.5331,0.5357,0.5408,0.5453,0.549,0.5529,0.5558,0.5597,0.5638,0.5693,0.5718,0.5766,0.5816,0.589,0.5921,0.5959,0.5966,0.5974,0.5976,0.5977,0.5974,0.5949,0.5969,0.5969,0.597,0.597,0.597,0,0.5339,0.5374,0.5415,0.5473,0.5509,0.5529,0.5576,0.5605,0.5647,0.5691,0.5731,0.5786,0.5833,0.5882,0.5931,0.5952,0.5965,0.5964,0.5963,0.597,0.5966,0.5956,0.5953,0.5953,0.5953,0.5953,0.5953,0.5953,0.5348,0.5392,0.5419,0.5482,0.5516,0.5564,0.5589,0.5625,0.566,0.572,0.5759,0.579,0.5836,0.5889,0.5932,0.5945,0.5962,0.5958,0.5974,0.5969,0.597,0.5972,0.5963,0.5961,0.5961,0.5975,0.5975,0.5975]},{"header":{"parameterUnit":"m.s-1","parameterCategory":1,"la1":30.2991,"la2":30.254,"lo1":-89.0895,"lo2":-89.0444,"dy":0.0017,"dx":0.0017,"nx":28,"ny":28,"refTime":"2025-07-20T21:00:00:Z","depth":0,"parameterNumber":3,"parameterNumberName":"V-component_of_WINDS"},"data":[0,0,0,0,0,0,0,0,0,0,0,0,0,0,0,0,0,0,0,0,0,0,0,0,0,0,0,0,0,0,0,0,0,0,0,0,0,0,0,0,0,0,0,0,0,0,0,0,0,0,0,0,0,0,0,0,0,0,4.1959,4.1959,0,4.1932,4.1931,4.1931,4.1946,4.1947,4.1947,4.1948,4.1914,4.1913,4.1911,0,0,0,0,0,0,0,0,0,0,0,0,0,4.2018,4.2017,4.1959,4.1958,4.1958,4.1932,4.1931,4.1931,4.1946,4.1947,4.1948,4.1949,4.1915,4.1913,4.1911,0,0,0,0,0,0,0,0,0,0,0,0,0,4.1992,4.2017,4.1959,4.1963,4.1963,4.1932,4.1931,4.1931,4.1946,4.1947,4.1948,4.1949,4.1915,4.1913,4.1911,4.1873,0,0,4.1903,4.1902,0,0,0,0,0,0,0,0,4.1993,4.199,4.1962,4.1962,4.1962,4.1944,4.194,4.1911,4.1945,4.1952,4.1948,4.195,4.1923,4.192,4.1912,4.1871,4.187,4.1903,4.1902,4.1901,4.19,0,0,0,0,0,0,0,4.1995,4.1991,4.1948,4.1962,4.1962,4.1964,4.1961,4.1935,4.1931,4.1951,4.1952,4.1949,4.1923,4.1914,4.1911,4.1869,4.1903,4.1901,4.1899,4.1898,4.1797,4.1796,0,0,0,0,0,0,4.1998,4.1992,4.1949,4.1947,4.1981,4.1962,4.1959,4.1948,4.1931,4.193,4.1948,4.195,4.1918,4.1914,4.191,4.1865,4.1901,4.1898,4.1897,4.1798,4.1797,4.1795,0,0,0,0,0,0,4.1999,4.1994,4.195,4.197,4.1965,4.196,4.1947,4.1947,4.1939,4.1929,4.1928,4.1941,4.1919,4.1913,4.1883,4.1864,4.1897,4.1895,4.18,4.1798,4.1796,4.1775,0,0,0,0,0,0,4.2,4.1994,4.1981,4.197,4.1964,4.1924,4.1946,4.1946,4.1935,4.1937,4.1922,4.192,4.1919,4.1886,4.188,4.1861,4.1893,4.1801,4.1799,4.1797,4.1777,4.1773,4.1769,0,0,0,0,0,4.2002,4.1974,4.198,4.1974,4.1947,4.1923,4.192,4.1921,4.1934,4.192,4.1914,4.1921,4.1867,4.1883,4.1876,4.1857,4.1802,4.1799,4.1797,4.1779,4.1774,4.1769,0,0,0,0,0,0,4.198,4.1973,4.1979,4.1947,4.1936,4.1926,4.1908,4.1915,4.1898,4.19,4.1901,4.1897,4.1865,4.1858,4.1875,4.1819,4.1837,4.1832,4.1826,4.182,4.1816,4.1818,4.1891,0,0,0,0,0,4.1972,4.1955,4.1949,4.1921,4.1915,4.1913,4.1902,4.1904,4.1892,4.1887,4.1879,4.1865,4.1846,4.1832,4.1814,4.1777,4.1773,4.176,4.1755,4.1752,4.1748,4.1728,4.1722,4.1786,4.1786,4.1786,0,0,4.1954,4.1948,4.1937,4.1916,4.1908,4.1889,4.1908,4.1887,4.1873,4.1883,4.1854,4.1848,4.1833,4.1799,4.1783,4.1791,4.173,4.1748,4.1746,4.1744,4.1725,4.1719,4.1713,4.1784,4.1785,4.1785,0,0,4.1911,4.1905,4.1882,4.1874,4.1863,4.1861,4.1856,4.1845,4.1842,4.1814,4.1821,4.1803,4.1769,4.1759,4.1749,4.1704,4.171,4.1698,4.1675,4.1655,4.165,4.1646,4.163,4.1624,4.1694,4.1694,4.1694,0,4.189,4.1864,4.1868,4.1847,4.1838,4.1849,4.1825,4.1816,4.1798,4.179,4.1801,4.176,4.175,4.1714,4.1703,4.1695,4.1688,4.1699,4.1651,4.1647,4.1642,4.1627,4.1621,4.1692,4.1693,4.1693,4.1693,0,4.1837,4.1819,4.1801,4.1786,4.1775,4.1752,4.1752,4.174,4.1743,4.1741,4.1711,4.1701,4.1681,4.1672,4.1674,4.1637,4.1642,4.1652,4.1669,4.1635,4.1621,4.1615,4.1691,4.1691,4.1691,4.1692,0,0,4.1779,4.1769,4.1762,4.1756,4.1745,4.173,4.1707,4.169,4.1679,4.1667,4.1647,4.1619,4.1629,4.1617,4.1618,4.1601,4.1567,4.1613,4.1613,4.1605,4.1525,4.1518,4.1511,4.1571,4.157,4.1569,4.1526,0,4.1735,4.1699,4.1703,4.1667,4.165,4.1661,4.1642,4.1632,4.1629,4.1613,4.1609,4.1589,4.1603,4.1597,4.158,4.1575,4.1551,4.1578,4.1552,4.1551,4.1555,4.1504,4.1496,4.1455,4.1521,4.152,4.1519,0,4.168,4.1668,4.1631,4.1624,4.1617,4.16,4.1585,4.157,4.1559,4.1558,4.1546,4.1551,4.1527,4.1546,4.1513,4.1531,4.1521,4.1516,4.1515,4.1512,4.1533,4.1499,4.1443,4.1437,4.151,4.1511,4.1512,0,4.1641,4.1616,4.1591,4.1585,4.1576,4.1564,4.1559,4.1549,4.1539,4.1525,4.1519,4.1501,4.1492,4.1478,4.1477,4.1491,4.1444,4.1462,4.1441,4.1441,4.143,4.1431,4.1371,4.1424,4.1424,4.1424,4.1424,0,4.1592,4.1569,4.1573,4.1558,4.1532,4.1537,4.1511,4.1507,4.1499,4.1482,4.149,4.1474,4.1474,4.1457,4.1456,4.1429,4.1424,4.1422,4.1422,4.1421,4.1422,4.1414,4.1417,4.1422,4.1423,4.1423,4.1423,0,4.1543,4.1546,4.1519,4.1514,4.1512,4.1493,4.1488,4.1473,4.1471,4.145,4.1445,4.1442,4.1423,4.1421,4.1398,4.1397,4.1364,4.1367,4.1369,4.1369,4.1349,4.135,4.1282,4.1273,4.1332,4.1331,4.1331,0,4.1512,4.1495,4.1488,4.1479,4.1474,4.1458,4.1449,4.1453,4.1442,4.143,4.1416,4.1398,4.1383,4.1351,4.1346,4.1328,4.1331,4.1308,4.1328,4.1328,4.133,4.1331,4.133,4.1304,4.1303,4.1303,4.1302,0,4.1455,4.1458,4.1445,4.1433,4.1422,4.1411,4.1402,4.1393,4.1396,4.1383,4.1365,4.1354,4.1332,4.1313,4.1297,4.129,4.1296,4.1296,4.1291,4.1289,4.1291,4.129,4.1358,4.1297,4.1298,4.1298,4.1299,4.1299,4.1414,4.14,4.1394,4.1379,4.1373,4.1365,4.1351,4.1349,4.1335,4.1318,4.1321,4.1301,4.1291,4.1269,4.1262,4.1245,4.1252,4.1244,4.1241,4.1239,4.1237,4.1294,4.1241,4.1241,4.1242,4.1242,4.1242,0,4.1358,4.1356,4.1342,4.133,4.1319,4.1329,4.1319,4.1308,4.1291,4.1282,4.1269,4.1248,4.1231,4.1225,4.1208,4.1195,4.1198,4.1191,4.1191,4.119,4.1231,4.1238,4.1189,4.1189,4.1189,4.1189,4.1189,4.1189,4.1328,4.1305,4.1307,4.1281,4.1278,4.126,4.1253,4.1245,4.1239,4.1216,4.1202,4.12,4.1192,4.1175,4.1159,4.1158,4.1151,4.1143,4.1143,4.1181,4.1187,4.1192,4.1198,4.1141,4.1141,4.1103,4.1102,4.1102]}]]